Weather in Polonnaruwa

Sri Lanka     7°56′23″N   81°00′04″E
В апреле 2022 года жителям России запретили посещать сайт meteo.paraplan.net по решению Генеральной прокуратуры. Аудитория сайта уменьшилась в 10 раз. Владельцы сайта не видят смысла в поддержке погодного сервера в таких условиях. Сайт будет закрыт в октябре.
temp.,
°C
wind,
m/s
gust,
m/s
humid.,
%
clouds,
%
prec.,
mm/h
press.,
hPa
HPBL,
m
26 september, mon
mon2623:30+25w1179100 0.8 100927
02:30+25ssw3689100 1.5 1007184
05:30+24sw3692100 3.1 1008211
08:30+28wsw356694 0.0 1010458
11:30+35wsw5440100 0.0 10081623
14:30+36wsw443499 0.1 10042878
17:30+31wsw154987 0.1 1006590
20:30+27wnw3564100 0.1 1009285
27 september, tue
tue2723:30+26wsw3868100 0.1 1009352
02:30+26wsw5106798 0.0 1007556
05:30+26wsw51169100 0.0 1008643
08:30+30wsw685498 0.0 10101016
11:30+35wsw553795 0.0 10071943
14:30+36w6535100 0.0 10042320
17:30+32wsw574589 0.0 1005931
20:30+27w4870100 0.0 1008503
28 september, wed
wed2823:30+26wsw51076100 0.1 1008463
02:30+26wsw41067100 0.0 1006497
05:30+25wsw41175100 0.2 1007456
08:30+30wsw7952100 0.0 10091035
11:30+35wsw7740100 0.0 10071854
14:30+34wsw7743100 0.0 10042007
17:30+29wsw71259100 0.0 1005892
20:30+27wsw71366100 0.0 1008827
29 september, thu
thu2923:30+27wsw61466100 0.0 1007866
02:30+26wsw61470100 0.0 1006894
05:30+26wsw71473100 0.0 1006840
08:30+29wsw81361100 0.0 1008972
11:30+34wsw8104395 0.0 10071679
14:30+32wsw91046100 0.0 10041795
17:30+28wsw6126445 0.0 10061114
20:30+27wsw61368100 0.0 1008943
30 september, fri
fri3023:30+27wsw61365100 0.0 1008948
02:30+26wsw61471100 0.0 1006937
05:30+26wsw61371100 0.0 1007968
08:30+28wsw71363100 0.0 10091160
11:30+32wsw81148100 0.0 10081659
14:30+33wsw91144100 0.0 10051787
17:30+29wsw7126159 0.0 10061208
20:30+27wsw61365100 0.0 1009945